Weather in Shabrovsky

Russia / Sverdlovsk Oblast     56°38′22″N   60°34′27″E
temp.,
°C
wind,
m/s
gust,
m/s
humid.,
%
clouds,
%
prec.,
mm/h
press.,
hPa
HPBL,
m
15 april, thu
thu1523:00+9wsw2290100 0.0 102823
02:00+8wsw229069 0.0 102722
05:00+8wsw239158 0.0 102652
08:00+11wsw3118149 0.0 1025374
11:00+15wsw58448 0.0 1023798
14:00+18wsw583510 0.0 10211171
17:00+18w594211 0.0 10201310
20:00+12wsw38675 0.0 1020154
16 april, fri
fri1623:00+9wsw311822 0.0 1020260
02:00+8wsw2985100 0.0 1019202
05:00+7nne4891100 0.0 1021506
08:00+5ne4790100 0.1 1024699
11:00+4ene4785100 0.1 1026735
14:00+6ene4554100 0.0 10261110
17:00+7se245669 0.1 10261100
20:00+3ssw22875 0.0 102643
17 april, sat
sat1723:00+1wnw11935 0.0 102610
02:000nw11925 0.0 102610
05:000wnw11905 0.0 102510
08:00+3n24600 0.0 1025284
11:00+7n34392 0.0 10241224
14:00+9nnw243627 0.0 10231817
17:00+10wnw453681 0.0 10212068
20:00+6nw375470 0.0 1021191
18 april, sun
sun1823:00+3wnw396686 0.0 1020307
02:00+2wnw4127162 0.0 1019555
05:00+1wnw513775 0.0 1018718
08:00+1n51082100 0.3 10191090
11:00+1n6943100 0.3 10222116
14:00+2nne6834100 0.0 10232645
17:00+1nne6834100 0.0 10262618
20:00−1nne484213 0.0 1029814
19 april, mon
mon1923:00−3nne38485 0.0 1031472
02:00−4nne36440 0.0 1032664
05:00−5n49430 0.0 10341459
08:00−4n510366 0.0 10361555
11:00−2nne583016 0.0 10361814
14:000nne46265 0.0 10362053
17:00+1n46265 0.0 10352087
20:00−3nne22420 0.0 103631